Time,TemperatureF,DewpointF,PressureIn,WindDirection,WindDirectionDegrees,WindSpeedMPH,WindSpeedGustMPH,Humidity,HourlyPrecipIn,Conditions,Clouds,dailyrainin,SoftwareType,DateUTC
2015-04-21 00:02:00,54.2,51.6,29.72,SW,227,0.0,0.0,91,0.00,CLR,,0.00,WeatherDisplay:10.37,2015-04-21 07:02:00,
2015-04-21 00:07:00,54.1,51.5,29.72,SW,227,0.0,0.0,91,0.00,CLR,,0.00,WeatherDisplay:10.37,2015-04-21 07:07:00,
2015-04-21 00:12:00,54.0,51.4,29.72,SW,227,0.0,0.0,91,0.00,CLR,,0.00,WeatherDisplay:10.37,2015-04-21 07:12:00,
2015-04-21 00:17:00,53.8,51.5,29.72,SW,227,0.0,0.0,92,0.00,CLR,,0.00,WeatherDisplay:10.37,2015-04-21 07:17:00,
2015-04-21 00:22:00,53.6,51.3,29.72,SW,227,0.0,0.0,92,0.00,CLR,,0.00,WeatherDisplay:10.37,2015-04-21 07:22:00,
2015-04-21 00:27:00,53.5,51.5,29.72,SW,227,0.0,0.0,93,0.00,CLR,,0.00,WeatherDisplay:10.37,2015-04-21 07:27:00,
2015-04-21 00:32:00,53.5,51.8,29.72,SW,233,0.0,0.1,94,0.00,CLR,,0.00,WeatherDisplay:10.37,2015-04-21 07:32:00,
2015-04-21 00:37:00,53.5,52.1,29.72,SW,233,0.0,0.0,95,0.00,CLR,,0.00,WeatherDisplay:10.37,2015-04-21 07:37:00,
2015-04-21 00:42:00,53.5,52.1,29.72,SW,233,0.0,0.0,95,0.00,CLR,,0.00,WeatherDisplay:10.37,2015-04-21 07:42:00,
2015-04-21 00:47:00,53.5,52.1,29.72,SW,233,0.0,0.0,95,0.00,CLR,,0.00,WeatherDisplay:10.37,2015-04-21 07:47:00,
2015-04-21 00:52:00,53.3,51.9,29.72,SW,233,0.0,0.0,95,0.00,CLR,,0.00,WeatherDisplay:10.37,2015-04-21 07:52:00,
2015-04-21 00:57:00,53.2,51.8,29.72,SW,233,0.0,0.0,95,0.00,CLR,,0.00,WeatherDisplay:10.37,2015-04-21 07:57:00,
2015-04-21 01:02:00,53.1,51.7,29.73,SW,233,0.0,0.0,95,0.00,CLR,,0.00,WeatherDisplay:10.37,2015-04-21 08:02:00,
2015-04-21 01:07:00,52.9,51.8,29.73,SW,233,0.0,0.0,96,0.00,CLR,,0.00,WeatherDisplay:10.37,2015-04-21 08:07:00,
2015-04-21 01:12:00,52.6,51.5,29.73,SW,233,0.0,0.0,96,0.00,CLR,,0.00,WeatherDisplay:10.37,2015-04-21 08:12:00,
2015-04-21 01:17:00,52.2,51.1,29.73,SW,233,0.0,0.0,96,0.00,CLR,,0.00,WeatherDisplay:10.37,2015-04-21 08:17:00,
2015-04-21 01:22:00,52.1,51.0,29.73,SW,233,0.0,0.0,96,0.00,CLR,,0.00,WeatherDisplay:10.37,2015-04-21 08:22:00,
2015-04-21 01:27:00,51.9,50.8,29.73,SW,233,0.0,0.0,96,0.00,CLR,,0.00,WeatherDisplay:10.37,2015-04-21 08:27:00,
2015-04-21 01:32:00,52.0,50.9,29.73,SW,233,0.0,0.0,96,0.00,CLR,,0.00,WeatherDisplay:10.37,2015-04-21 08:32:00,
2015-04-21 01:37:00,51.8,50.7,29.73,SW,233,0.0,0.0,96,0.00,CLR,,0.00,WeatherDisplay:10.37,2015-04-21 08:37:00,
2015-04-21 01:42:00,51.7,50.6,29.73,SW,233,0.0,0.0,96,0.00,CLR,,0.00,WeatherDisplay:10.37,2015-04-21 08:42:00,
2015-04-21 01:47:00,51.4,50.3,29.73,SW,233,0.0,0.0,96,0.00,CLR,,0.00,WeatherDisplay:10.37,2015-04-21 08:47:00,
2015-04-21 01:52:00,51.2,50.1,29.73,SW,233,0.0,0.0,96,0.00,CLR,,0.00,WeatherDisplay:10.37,2015-04-21 08:52:00,
2015-04-21 01:57:00,51.0,49.9,29.73,SW,233,0.0,0.0,96,0.00,CLR,,0.00,WeatherDisplay:10.37,2015-04-21 08:57:00,
2015-04-21 02:02:00,50.8,49.7,29.73,SW,233,0.0,0.0,96,0.00,CLR,,0.00,WeatherDisplay:10.37,2015-04-21 09:02:00,
2015-04-21 02:07:00,50.5,49.4,29.73,SW,233,0.0,0.0,96,0.00,CLR,,0.00,WeatherDisplay:10.37,2015-04-21 09:07:00,
2015-04-21 02:12:00,50.4,49.3,29.73,SW,233,0.0,0.0,96,0.00,CLR,,0.00,WeatherDisplay:10.37,2015-04-21 09:12:00,
2015-04-21 02:17:00,50.4,49.3,29.73,SW,233,0.0,0.0,96,0.00,CLR,,0.00,WeatherDisplay:10.37,2015-04-21 09:17:00,
2015-04-21 02:22:00,50.4,49.0,29.73,SW,233,0.0,0.0,95,0.00,CLR,,0.00,WeatherDisplay:10.37,2015-04-21 09:22:00,
2015-04-21 02:27:00,50.3,48.9,29.73,SW,233,0.0,0.0,95,0.00,CLR,,0.00,WeatherDisplay:10.37,2015-04-21 09:27:00,
2015-04-21 02:32:00,50.2,48.8,29.73,SW,233,0.0,0.0,95,0.00,CLR,,0.00,WeatherDisplay:10.37,2015-04-21 09:32:00,
2015-04-21 02:37:00,50.1,48.7,29.73,SW,233,0.0,0.0,95,0.00,CLR,,0.00,WeatherDisplay:10.37,2015-04-21 09:37:00,
2015-04-21 02:42:00,50.1,48.7,29.73,SW,233,0.0,0.0,95,0.00,CLR,,0.00,WeatherDisplay:10.37,2015-04-21 09:42:00,
2015-04-21 02:47:00,50.0,48.6,29.73,SW,233,0.0,0.0,95,0.00,CLR,,0.00,WeatherDisplay:10.37,2015-04-21 09:47:00,
2015-04-21 02:52:00,49.9,48.5,29.74,SW,233,0.0,0.0,95,0.00,CLR,,0.00,WeatherDisplay:10.37,2015-04-21 09:52:00,
2015-04-21 02:57:00,49.8,48.4,29.74,SW,233,0.0,0.0,95,0.00,CLR,,0.00,WeatherDisplay:10.37,2015-04-21 09:57:00,
2015-04-21 03:02:00,49.7,48.3,29.74,SW,233,0.0,0.0,95,0.00,CLR,,0.00,WeatherDisplay:10.37,2015-04-21 10:02:00,
2015-04-21 03:07:00,49.6,48.2,29.74,SW,233,0.0,0.0,95,0.00,CLR,,0.00,WeatherDisplay:10.37,2015-04-21 10:07:00,